Time,TemperatureF,DewpointF,PressureIn,WindDirection,WindDirectionDegrees,WindSpeedMPH,WindSpeedGustMPH,Humidity,HourlyPrecipIn,Conditions,Clouds,dailyrainin,SolarRadiationWatts/m^2,SoftwareType,DateUTC
2013-12-03 00:03:00,2.1,-0.9,30.74,East,85,0.0,0.0,87,0.00,CLR,,0.00,0.0,WeatherDisplay:10.37,2013-12-03 09:03:00,
2013-12-03 00:08:00,2.0,-1.0,30.74,East,85,0.0,0.0,87,0.00,CLR,,0.00,0.0,WeatherDisplay:10.37,2013-12-03 09:08:00,
2013-12-03 00:13:00,1.8,-1.2,30.74,East,85,0.0,0.0,87,0.00,CLR,,0.00,0.0,WeatherDisplay:10.37,2013-12-03 09:13:00,
2013-12-03 00:18:00,1.7,-1.3,30.74,East,85,0.0,0.0,87,0.00,CLR,,0.00,0.0,WeatherDisplay:10.37,2013-12-03 09:18:00,
2013-12-03 00:23:00,1.6,-1.4,30.74,East,85,0.0,0.0,87,0.00,CLR,,0.00,0.0,WeatherDisplay:10.37,2013-12-03 09:23:00,
2013-12-03 00:28:00,1.5,-1.5,30.74,East,85,1.2,0.0,87,0.00,CLR,,0.00,0.0,WeatherDisplay:10.37,2013-12-03 09:28:00,
2013-12-03 00:33:00,1.5,-1.5,30.74,East,85,0.0,0.0,87,0.00,CLR,,0.00,0.0,WeatherDisplay:10.37,2013-12-03 09:33:00,
2013-12-03 00:38:00,1.4,-1.6,30.74,East,85,0.0,0.0,87,0.00,CLR,,0.00,0.0,WeatherDisplay:10.37,2013-12-03 09:38:00,
2013-12-03 00:43:00,1.4,-1.3,30.74,East,85,0.0,0.0,88,0.00,CLR,,0.00,0.0,WeatherDisplay:10.37,2013-12-03 09:43:00,
2013-12-03 00:48:00,1.4,-1.3,30.74,East,85,0.0,0.0,88,0.00,CLR,,0.00,0.0,WeatherDisplay:10.37,2013-12-03 09:48:00,
2013-12-03 00:53:00,1.4,-1.3,30.74,East,85,0.0,0.0,88,0.00,CLR,,0.00,0.0,WeatherDisplay:10.37,2013-12-03 09:53:00,
2013-12-03 00:58:00,1.4,-1.6,30.74,East,85,0.0,0.0,87,0.00,CLR,,0.00,0.0,WeatherDisplay:10.37,2013-12-03 09:58:00,
2013-12-03 01:03:00,1.3,-1.7,30.75,East,85,0.0,0.0,87,0.00,CLR,,0.00,0.0,WeatherDisplay:10.37,2013-12-03 10:03:00,
2013-12-03 01:08:00,1.3,-1.4,30.74,East,85,0.0,0.0,88,0.00,CLR,,0.00,0.0,WeatherDisplay:10.37,2013-12-03 10:08:00,
2013-12-03 01:13:00,1.3,-1.4,30.74,East,85,0.0,0.0,88,0.00,CLR,,0.00,0.0,WeatherDisplay:10.37,2013-12-03 10:13:00,
2013-12-03 01:18:00,1.5,-1.2,30.74,East,85,0.0,0.0,88,0.00,CLR,,0.00,0.0,WeatherDisplay:10.37,2013-12-03 10:18:00,
2013-12-03 01:23:00,1.4,-1.3,30.74,East,85,0.0,0.0,88,0.00,CLR,,0.00,0.0,WeatherDisplay:10.37,2013-12-03 10:23:00,
2013-12-03 01:28:00,1.4,-1.6,30.74,East,85,1.0,0.0,87,0.00,CLR,,0.00,0.0,WeatherDisplay:10.37,2013-12-03 10:28:00,
2013-12-03 01:33:00,1.5,-1.2,30.73,East,85,0.0,0.0,88,0.00,CLR,,0.00,0.0,WeatherDisplay:10.37,2013-12-03 10:33:00,
2013-12-03 01:38:00,1.4,-1.3,30.74,East,85,1.2,1.2,88,0.00,CLR,,0.00,0.0,WeatherDisplay:10.37,2013-12-03 10:38:00,
2013-12-03 01:43:00,1.4,-1.3,30.74,East,85,1.2,0.0,88,0.00,CLR,,0.00,0.0,WeatherDisplay:10.37,2013-12-03 10:43:00,
2013-12-03 01:48:00,1.4,-1.3,30.73,East,85,2.3,0.0,88,0.00,CLR,,0.00,0.0,WeatherDisplay:10.37,2013-12-03 10:48:00,
2013-12-03 01:53:00,1.5,-1.2,30.74,East,85,0.0,0.0,88,0.00,CLR,,0.00,0.0,WeatherDisplay:10.37,2013-12-03 10:53:00,
2013-12-03 01:58:00,1.7,-0.8,30.74,East,85,0.0,0.0,89,0.00,CLR,,0.00,0.0,WeatherDisplay:10.37,2013-12-03 10:58:00,
2013-12-03 02:03:00,1.8,-0.7,30.74,East,85,0.0,0.0,89,0.00,CLR,,0.00,0.0,WeatherDisplay:10.37,2013-12-03 11:03:00,
2013-12-03 02:09:00,1.9,-0.6,30.74,East,85,0.0,0.0,89,0.00,CLR,,0.00,0.0,WeatherDisplay:10.37,2013-12-03 11:09:00,
2013-12-03 02:14:00,2.0,-0.5,30.74,East,85,1.2,0.0,89,0.00,CLR,,0.00,0.0,WeatherDisplay:10.37,2013-12-03 11:14:00,
2013-12-03 02:19:00,2.0,-0.5,30.74,East,85,0.0,0.0,89,0.00,CLR,,0.00,0.0,WeatherDisplay:10.37,2013-12-03 11:19:00,
2013-12-03 02:24:00,2.0,-0.7,30.73,East,85,0.0,0.0,88,0.00,CLR,,0.00,0.0,WeatherDisplay:10.37,2013-12-03 11:24:00,
2013-12-03 02:29:00,2.0,-0.7,30.73,East,85,0.0,0.0,88,0.00,CLR,,0.00,0.0,WeatherDisplay:10.37,2013-12-03 11:29:00,
2013-12-03 02:34:00,1.9,-0.8,30.74,East,85,0.0,0.1,88,0.00,CLR,,0.00,0.0,WeatherDisplay:10.37,2013-12-03 11:34:00,
2013-12-03 02:39:00,1.9,-0.8,30.73,East,85,2.3,2.3,88,0.00,CLR,,0.00,0.0,WeatherDisplay:10.37,2013-12-03 11:39:00,
2013-12-03 02:44:00,1.8,-0.9,30.74,East,85,2.3,2.3,88,0.00,CLR,,0.00,0.0,WeatherDisplay:10.37,2013-12-03 11:44:00,
2013-12-03 02:49:00,1.8,-0.9,30.73,East,85,1.2,1.2,88,0.00,CLR,,0.00,0.0,WeatherDisplay:10.37,2013-12-03 11:49:00,
2013-12-03 02:54:00,1.7,-1.3,30.73,East,85,1.2,0.0,87,0.00,CLR,,0.00,0.0,WeatherDisplay:10.37,2013-12-03 11:54:00,
2013-12-03 02:59:00,1.6,-1.4,30.73,East,85,0.0,0.0,87,0.00,CLR,,0.00,0.0,WeatherDisplay:10.37,2013-12-03 11:59:00,
2013-12-03 03:04:00,1.5,-1.5,30.74,East,85,1.2,1.2,87,0.00,CLR,,0.00,0.0,WeatherDisplay:10.37,2013-12-03 12:04:00,
2013-12-03 03:09:00,1.6,-1.1,30.74,East,85,0.0,0.0,88,0.00,CLR,,0.00,0.0,WeatherDisplay:10.37,2013-12-03 12:09:00,
2013-12-03 03:14:00,1.7,-1.0,30.74,East,85,1.2,0.0,88,0.00,CLR,,0.00,0.0,WeatherDisplay:10.37,2013-12-03 12:14:00,
2013-12-03 03:19:00,1.7,-1.0,30.74,East,85,1.2,0.0,88,0.00,CLR,,0.00,0.0,WeatherDisplay:10.37,2013-12-03 12:19:00,
2013-12-03 03:24:00,1.7,-1.0,30.73,East,85,0.0,0.0,88,0.00,CLR,,0.00,0.0,WeatherDisplay:10.37,2013-12-03 12:24:00,
2013-12-03 03:29:00,1.7,-1.0,30.73,East,85,1.2,1.2,88,0.00,CLR,,0.00,0.0,WeatherDisplay:10.37,2013-12-03 12:29:00,
2013-12-03 03:34:00,1.6,-1.4,30.73,East,85,1.2,0.0,87,0.00,CLR,,0.00,0.0,WeatherDisplay:10.37,2013-12-03 12:34:00,
2013-12-03 03:39:00,1.5,-1.2,30.73,East,85,1.2,1.2,88,0.00,CLR,,0.00,0.0,WeatherDisplay:10.37,2013-12-03 12:39:00,
2013-12-03 03:44:00,1.5,-1.2,30.73,East,85,1.2,1.2,88,0.00,CLR,,0.00,0.0,WeatherDisplay:10.37,2013-12-03 12:44:00,
2013-12-03 03:49:00,1.5,-1.2,30.73,East,85,1.2,1.2,88,0.00,CLR,,0.00,0.0,WeatherDisplay:10.37,2013-12-03 12:49:00,
2013-12-03 03:54:00,1.6,-0.9,30.73,NE,51,2.3,2.3,89,0.00,CLR,,0.00,0.0,WeatherDisplay:10.37,2013-12-03 12:54:00,
2013-12-03 03:59:00,1.9,-0.4,30.73,East,80,2.3,2.3,90,0.00,CLR,,0.00,0.0,WeatherDisplay:10.37,2013-12-03 12:59:00,
2013-12-03 04:04:00,2.4,0.4,30.73,East,80,0.0,0.0,91,0.00,CLR,,0.00,0.0,WeatherDisplay:10.37,2013-12-03 13:04:00,
2013-12-03 04:09:00,2.7,0.7,30.73,East,80,1.2,1.2,91,0.00,CLR,,0.00,0.0,WeatherDisplay:10.37,2013-12-03 13:09:00,
2013-12-03 04:14:00,3.2,1.2,30.73,East,80,0.0,0.0,91,0.00,CLR,,0.00,0.0,WeatherDisplay:10.37,2013-12-03 13:14:00,
2013-12-03 04:19:00,3.4,1.4,30.73,East,80,0.0,0.0,91,0.00,CLR,,0.00,0.0,WeatherDisplay:10.37,2013-12-03 13:19:00,
2013-12-03 04:24:00,3.9,1.9,30.73,East,80,2.3,2.3,91,0.00,CLR,,0.00,0.0,WeatherDisplay:10.37,2013-12-03 13:24:00,
2013-12-03 04:29:00,4.2,2.4,30.73,East,80,0.0,0.0,92,0.00,CLR,,0.00,0.0,WeatherDisplay:10.37,2013-12-03 13:29:00,
2013-12-03 04:34:00,4.5,2.5,30.73,East,80,0.0,0.0,91,0.00,CLR,,0.00,0.0,WeatherDisplay:10.37,2013-12-03 13:34:00,
2013-12-03 04:39:00,4.7,2.7,30.73,East,80,1.2,1.2,91,0.00,CLR,,0.00,0.0,WeatherDisplay:10.37,2013-12-03 13:39:00,
2013-12-03 04:44:00,4.7,2.4,30.73,East,80,1.2,1.2,90,0.00,CLR,,0.00,0.0,WeatherDisplay:10.37,2013-12-03 13:44:00,
2013-12-03 04:49:00,4.7,2.4,30.73,East,80,1.2,1.2,90,0.00,CLR,,0.00,0.0,WeatherDisplay:10.37,2013-12-03 13:49:00,
2013-12-03 04:54:00,4.8,2.5,30.73,East,80,1.2,1.2,90,0.00,CLR,,0.00,0.0,WeatherDisplay:10.37,2013-12-03 13:54:00,
2013-12-03 04:59:00,5.0,2.7,30.73,East,80,2.3,2.3,90,0.00,CLR,,0.00,0.0,WeatherDisplay:10.37,2013-12-03 13:59:00,
2013-12-03 05:04:00,5.4,3.3,30.72,ENE,74,1.2,1.2,91,0.00,CLR,,0.00,0.0,WeatherDisplay:10.37,2013-12-03 14:04:00,
2013-12-03 05:09:00,5.6,3.5,30.72,ENE,74,1.2,1.2,91,0.00,CLR,,0.00,0.0,WeatherDisplay:10.37,2013-12-03 14:09:00,
2013-12-03 05:14:00,5.8,3.7,30.72,ENE,78,3.5,3.5,91,0.00,CLR,,0.00,0.0,WeatherDisplay:10.37,2013-12-03 14:14:00,
2013-12-03 05:19:00,6.0,3.9,30.72,East,86,2.3,2.3,91,0.00,CLR,,0.00,0.0,WeatherDisplay:10.37,2013-12-03 14:19:00,
2013-12-03 05:24:00,6.0,3.7,30.72,East,80,2.3,2.3,90,0.00,CLR,,0.00,0.0,WeatherDisplay:10.37,2013-12-03 14:24:00,
2013-12-03 05:29:00,6.0,3.7,30.71,East,80,2.3,2.3,90,0.00,CLR,,0.00,0.0,WeatherDisplay:10.37,2013-12-03 14:29:00,
2013-12-03 05:34:00,6.0,3.7,30.72,East,80,1.2,1.2,90,0.00,BKN,,0.00,0.0,WeatherDisplay:10.37,2013-12-03 14:34:00,
2013-12-03 05:39:00,6.0,3.7,30.71,East,80,1.2,1.2,90,0.00,BKN,,0.00,0.0,WeatherDisplay:10.37,2013-12-03 14:39:00,
2013-12-03 05:44:00,6.0,3.7,30.71,East,80,1.2,0.0,90,0.00,BKN,,0.00,0.0,WeatherDisplay:10.37,2013-12-03 14:44:00,
2013-12-03 05:49:00,6.1,3.8,30.72,East,80,1.2,1.2,90,0.00,BKN,,0.00,0.0,WeatherDisplay:10.37,2013-12-03 14:49:00,
2013-12-03 05:54:00,6.1,3.8,30.72,East,80,1.2,1.2,90,0.00,BKN,,0.00,0.0,WeatherDisplay:10.37,2013-12-03 14:54:00,
2013-12-03 05:59:00,6.0,3.7,30.72,East,80,1.2,1.2,90,0.00,BKN,,0.00,0.0,WeatherDisplay:10.37,2013-12-03 14:59:00,
2013-12-03 06:04:00,6.0,3.7,30.72,East,80,2.3,2.3,90,0.00,BKN,,0.00,0.0,WeatherDisplay:10.37,2013-12-03 15:04:00,
2013-12-03 06:09:00,6.0,3.7,30.71,East,80,1.2,1.2,90,0.00,BKN,,0.00,0.0,WeatherDisplay:10.37,2013-12-03 15:09:00,
2013-12-03 06:14:00,6.0,3.7,30.71,East,80,2.3,2.3,90,0.00,BKN,,0.00,0.0,WeatherDisplay:10.37,2013-12-03 15:14:00,
2013-12-03 06:19:00,6.1,3.8,30.71,East,80,2.3,2.3,90,0.00,SCT,,0.00,0.0,WeatherDisplay:10.37,2013-12-03 15:19:00,
2013-12-03 06:24:00,6.2,3.9,30.71,East,80,2.3,2.3,90,0.00,SCT,,0.00,0.0,WeatherDisplay:10.37,2013-12-03 15:24:00,
2013-12-03 06:29:00,6.4,4.3,30.71,East,82,3.5,3.5,91,0.00,SCT,,0.00,0.0,WeatherDisplay:10.37,2013-12-03 15:29:00,
2013-12-03 06:34:00,6.4,4.1,30.71,East,82,1.2,1.2,90,0.00,SCT,,0.00,0.0,WeatherDisplay:10.37,2013-12-03 15:34:00,
2013-12-03 06:39:00,6.6,4.3,30.72,East,82,2.3,2.3,90,0.00,SCT,,0.00,0.0,WeatherDisplay:10.37,2013-12-03 15:39:00,
2013-12-03 06:44:00,6.7,4.4,30.72,East,82,1.2,1.2,90,0.00,SCT,,0.00,0.0,WeatherDisplay:10.37,2013-12-03 15:44:00,
2013-12-03 06:49:00,6.7,4.4,30.72,East,82,0.0,0.0,90,0.00,SCT,,0.00,0.0,WeatherDisplay:10.37,2013-12-03 15:49:00,
2013-12-03 06:54:00,6.5,4.2,30.72,East,82,2.3,2.3,90,0.00,SCT,,0.00,0.0,WeatherDisplay:10.37,2013-12-03 15:54:00,
2013-12-03 06:59:00,6.5,4.2,30.71,East,82,0.0,0.0,90,0.00,SCT,,0.00,0.0,WeatherDisplay:10.37,2013-12-03 15:59:00,
2013-12-03 07:04:00,6.4,3.9,30.71,East,82,1.2,1.2,89,0.00,CLR,,0.00,0.0,WeatherDisplay:10.37,2013-12-03 16:04:00,
2013-12-03 07:09:00,6.4,4.1,30.71,East,82,1.2,0.0,90,0.00,CLR,,0.00,0.0,WeatherDisplay:10.37,2013-12-03 16:09:00,
2013-12-03 07:14:00,6.3,3.8,30.71,East,82,0.0,0.0,89,0.00,CLR,,0.00,0.0,WeatherDisplay:10.37,2013-12-03 16:14:00,
2013-12-03 07:19:00,6.2,3.7,30.72,East,82,0.0,0.0,89,0.00,CLR,,0.00,0.0,WeatherDisplay:10.37,2013-12-03 16:19:00,
2013-12-03 07:24:00,6.1,3.6,30.72,East,82,0.0,0.0,89,0.00,CLR,,0.00,0.0,WeatherDisplay:10.37,2013-12-03 16:24:00,
2013-12-03 07:29:00,6.0,3.5,30.72,East,82,0.0,0.0,89,0.00,CLR,,0.00,0.0,WeatherDisplay:10.37,2013-12-03 16:29:00,
2013-12-03 07:34:00,5.8,3.3,30.72,East,82,0.0,0.0,89,0.00,CLR,,0.00,0.0,WeatherDisplay:10.37,2013-12-03 16:34:00,
2013-12-03 07:39:00,5.7,3.2,30.71,East,82,0.0,0.0,89,0.00,CLR,,0.00,0.0,WeatherDisplay:10.37,2013-12-03 16:39:00,
2013-12-03 07:44:00,5.5,2.7,30.71,East,82,0.0,0.0,88,0.00,CLR,,0.00,0.0,WeatherDisplay:10.37,2013-12-03 16:44:00,
2013-12-03 07:49:00,5.3,2.5,30.71,East,82,0.0,0.0,88,0.00,CLR,,0.00,0.0,WeatherDisplay:10.37,2013-12-03 16:49:00,
2013-12-03 07:54:00,5.1,2.3,30.71,East,82,0.0,0.0,88,0.00,CLR,,0.00,0.0,WeatherDisplay:10.37,2013-12-03 16:54:00,
2013-12-03 07:59:00,5.0,2.2,30.71,East,82,0.0,0.0,88,0.00,CLR,,0.00,0.0,WeatherDisplay:10.37,2013-12-03 16:59:00,
2013-12-03 08:04:00,4.8,2.0,30.71,East,82,0.0,0.0,88,0.00,CLR,,0.00,0.0,WeatherDisplay:10.37,2013-12-03 17:04:00,
2013-12-03 08:09:00,4.7,1.9,30.71,East,82,1.2,1.2,88,0.00,CLR,,0.00,0.0,WeatherDisplay:10.37,2013-12-03 17:09:00,
2013-12-03 08:14:00,4.7,1.9,30.71,East,82,0.0,0.0,88,0.00,CLR,,0.00,0.0,WeatherDisplay:10.37,2013-12-03 17:14:00,
2013-12-03 08:19:00,4.5,1.7,30.71,East,82,0.0,0.0,88,0.00,CLR,,0.00,0.0,WeatherDisplay:10.37,2013-12-03 17:19:00,
2013-12-03 08:24:00,4.4,1.6,30.71,East,82,0.0,0.0,88,0.00,CLR,,0.00,0.0,WeatherDisplay:10.37,2013-12-03 17:24:00,
2013-12-03 08:29:00,4.2,1.4,30.71,East,82,0.0,0.0,88,0.00,CLR,,0.00,0.0,WeatherDisplay:10.37,2013-12-03 17:29:00,
2013-12-03 08:34:00,4.1,1.3,30.72,East,82,1.2,0.0,88,0.00,CLR,,0.00,0.0,WeatherDisplay:10.37,2013-12-03 17:34:00,
2013-12-03 08:39:00,4.0,1.2,30.71,East,82,0.0,0.0,88,0.00,CLR,,0.00,0.0,WeatherDisplay:10.37,2013-12-03 17:39:00,
2013-12-03 08:44:00,3.9,1.1,30.72,East,82,0.0,0.0,88,0.00,CLR,,0.00,0.0,WeatherDisplay:10.37,2013-12-03 17:44:00,
2013-12-03 08:49:00,3.7,0.9,30.72,East,82,0.0,0.0,88,0.00,CLR,,0.00,0.0,WeatherDisplay:10.37,2013-12-03 17:49:00,
2013-12-03 08:54:00,3.6,0.8,30.72,East,82,0.0,0.0,88,0.00,CLR,,0.00,0.0,WeatherDisplay:10.37,2013-12-03 17:54:00,
2013-12-03 08:59:00,3.5,0.7,30.72,East,82,0.0,0.0,88,0.00,CLR,,0.00,0.0,WeatherDisplay:10.37,2013-12-03 17:59:00,
2013-12-03 09:04:00,3.4,0.6,30.72,East,82,0.0,0.0,88,0.00,CLR,,0.00,0.0,WeatherDisplay:10.37,2013-12-03 18:04:00,
2013-12-03 09:09:00,3.3,0.5,30.72,East,82,0.0,0.0,88,0.00,CLR,,0.00,0.0,WeatherDisplay:10.37,2013-12-03 18:09:00,
2013-12-03 09:14:00,3.2,0.4,30.72,East,82,0.0,0.0,88,0.00,CLR,,0.00,0.0,WeatherDisplay:10.37,2013-12-03 18:14:00,
2013-12-03 09:19:00,3.1,0.3,30.72,East,82,0.0,0.0,88,0.00,CLR,,0.00,0.0,WeatherDisplay:10.37,2013-12-03 18:19:00,
2013-12-03 09:24:00,3.0,0.0,30.72,East,82,0.0,0.0,87,0.00,CLR,,0.00,0.0,WeatherDisplay:10.37,2013-12-03 18:24:00,
2013-12-03 09:29:00,2.9,-0.1,30.72,East,82,0.0,0.0,87,0.00,CLR,,0.00,0.0,WeatherDisplay:10.37,2013-12-03 18:29:00,
2013-12-03 09:34:00,2.8,-0.2,30.72,East,82,0.0,0.0,87,0.00,CLR,,0.00,0.0,WeatherDisplay:10.37,2013-12-03 18:34:00,
2013-12-03 09:39:00,2.7,0.0,30.72,East,82,1.2,1.2,88,0.00,CLR,,0.00,0.0,WeatherDisplay:10.37,2013-12-03 18:39:00,
2013-12-03 09:44:00,2.6,-0.1,30.71,East,82,1.2,1.2,88,0.00,CLR,,0.00,0.0,WeatherDisplay:10.37,2013-12-03 18:44:00,
2013-12-03 09:49:00,2.7,0.0,30.71,East,82,1.2,0.0,88,0.00,CLR,,0.00,0.0,WeatherDisplay:10.37,2013-12-03 18:49:00,
2013-12-03 09:54:00,2.7,0.0,30.71,East,82,0.0,0.0,88,0.00,CLR,,0.00,0.0,WeatherDisplay:10.37,2013-12-03 18:54:00,
2013-12-03 09:59:00,2.6,-0.1,30.71,East,82,0.0,0.0,88,0.00,CLR,,0.00,0.0,WeatherDisplay:10.37,2013-12-03 18:59:00,
2013-12-03 10:04:00,2.5,-0.2,30.71,East,82,1.2,1.2,88,0.00,CLR,,0.00,0.0,WeatherDisplay:10.37,2013-12-03 19:04:00,
2013-12-03 10:09:00,2.4,-0.3,30.70,East,82,1.2,0.0,88,0.00,CLR,,0.00,0.0,WeatherDisplay:10.37,2013-12-03 19:09:00,
2013-12-03 10:14:00,2.4,-0.3,30.70,East,82,2.3,2.3,88,0.00,CLR,,0.00,0.0,WeatherDisplay:10.37,2013-12-03 19:14:00,
2013-12-03 10:19:00,2.9,0.4,30.70,East,82,2.3,2.3,89,0.00,CLR,,0.00,5.0,WeatherDisplay:10.37,2013-12-03 19:19:00,
2013-12-03 10:24:00,3.1,0.6,30.70,East,82,2.3,2.3,89,0.00,CLR,,0.00,5.0,WeatherDisplay:10.37,2013-12-03 19:24:00,
2013-12-03 10:29:00,3.3,0.8,30.70,East,82,0.0,0.0,89,0.00,CLR,,0.00,5.0,WeatherDisplay:10.37,2013-12-03 19:29:00,
2013-12-03 10:34:00,3.3,0.5,30.70,East,82,1.2,0.0,88,0.00,CLR,,0.00,5.0,WeatherDisplay:10.37,2013-12-03 19:34:00,
2013-12-03 10:39:00,3.3,0.5,30.70,East,82,1.2,1.2,88,0.00,CLR,,0.00,7.0,WeatherDisplay:10.37,2013-12-03 19:39:00,
2013-12-03 10:44:00,3.4,0.9,30.70,East,82,0.0,0.1,89,0.00,CLR,,0.00,7.0,WeatherDisplay:10.37,2013-12-03 19:44:00,
2013-12-03 10:49:00,3.6,1.1,30.69,East,82,0.0,0.0,89,0.00,CLR,,0.00,7.0,WeatherDisplay:10.37,2013-12-03 19:49:00,
2013-12-03 10:54:00,3.7,1.2,30.70,East,82,0.0,0.0,89,0.00,CLR,,0.00,7.0,WeatherDisplay:10.37,2013-12-03 19:54:00,
2013-12-03 10:59:00,4.0,1.7,30.70,East,82,1.2,0.0,90,0.00,CLR,,0.00,9.0,WeatherDisplay:10.37,2013-12-03 19:59:00,
2013-12-03 11:04:00,4.2,1.7,30.70,East,82,0.0,0.0,89,0.00,CLR,,0.00,9.0,WeatherDisplay:10.37,2013-12-03 20:04:00,
2013-12-03 11:09:00,4.4,1.9,30.70,East,82,1.2,1.2,89,0.00,CLR,,0.00,9.0,WeatherDisplay:10.37,2013-12-03 20:09:00,
2013-12-03 11:15:00,4.7,2.4,30.70,East,82,1.2,0.0,90,0.00,CLR,,0.00,9.0,WeatherDisplay:10.37,2013-12-03 20:15:00,
2013-12-03 11:20:00,5.0,2.7,30.71,East,82,0.0,0.0,90,0.00,CLR,,0.00,11.0,WeatherDisplay:10.37,2013-12-03 20:20:00,
2013-12-03 11:25:00,5.5,3.4,30.71,East,82,0.0,0.0,91,0.00,CLR,,0.00,11.0,WeatherDisplay:10.37,2013-12-03 20:25:00,
2013-12-03 11:30:00,5.9,3.8,30.71,East,82,0.0,0.0,91,0.00,CLR,,0.00,11.0,WeatherDisplay:10.37,2013-12-03 20:30:00,
2013-12-03 11:35:00,6.3,4.2,30.70,East,82,0.0,0.0,91,0.00,CLR,,0.00,11.0,WeatherDisplay:10.37,2013-12-03 20:35:00,
2013-12-03 11:40:00,6.5,4.2,30.70,East,82,1.2,0.0,90,0.00,CLR,,0.00,11.0,WeatherDisplay:10.37,2013-12-03 20:40:00,
2013-12-03 11:45:00,6.8,4.7,30.70,East,82,0.0,0.0,91,0.00,CLR,,0.00,11.0,WeatherDisplay:10.37,2013-12-03 20:45:00,
2013-12-03 11:50:00,7.1,5.0,30.70,East,82,1.0,1.0,91,0.00,CLR,,0.00,11.0,WeatherDisplay:10.37,2013-12-03 20:50:00,
2013-12-03 11:55:00,7.3,5.2,30.69,East,82,1.0,0.0,91,0.00,CLR,,0.00,11.0,WeatherDisplay:10.37,2013-12-03 20:55:00,
2013-12-03 12:00:00,7.6,5.5,30.69,East,82,1.2,0.0,91,0.00,CLR,,0.00,11.0,WeatherDisplay:10.37,2013-12-03 21:00:00,
2013-12-03 12:05:00,8.0,5.9,30.69,East,82,1.0,1.0,91,0.00,CLR,,0.00,11.0,WeatherDisplay:10.37,2013-12-03 21:05:00,
2013-12-03 12:10:00,8.6,6.8,30.68,East,82,1.2,1.2,92,0.00,CLR,,0.00,11.0,WeatherDisplay:10.37,2013-12-03 21:10:00,
2013-12-03 12:15:00,9.1,7.2,30.68,East,82,2.3,2.3,92,0.00,CLR,,0.00,12.0,WeatherDisplay:10.37,2013-12-03 21:15:00,
2013-12-03 12:20:00,9.5,7.6,30.68,East,82,1.2,0.0,92,0.00,CLR,,0.00,12.0,WeatherDisplay:10.37,2013-12-03 21:20:00,
2013-12-03 12:25:00,9.8,7.9,30.68,East,82,1.2,1.2,92,0.00,CLR,,0.00,12.0,WeatherDisplay:10.37,2013-12-03 21:25:00,
2013-12-03 12:30:00,10.0,7.9,30.68,East,82,1.2,1.2,91,0.00,CLR,,0.00,12.0,WeatherDisplay:10.37,2013-12-03 21:30:00,
2013-12-03 12:35:00,10.3,8.2,30.68,East,82,2.0,2.0,91,0.00,CLR,,0.00,12.0,WeatherDisplay:10.37,2013-12-03 21:35:00,
2013-12-03 12:44:00,10.7,8.6,30.68,East,82,2.0,2.0,91,0.00,CLR,,0.00,12.0,WeatherDisplay:10.37,2013-12-03 21:44:00,
2013-12-03 12:49:00,10.8,8.7,30.68,East,101,0.0,0.0,91,0.00,CLR,,0.00,12.0,WeatherDisplay:10.37,2013-12-03 21:49:00,
2013-12-03 12:54:00,11.0,8.9,30.68,East,98,2.3,2.3,91,0.00,CLR,,0.00,12.0,WeatherDisplay:10.37,2013-12-03 21:54:00,
2013-12-03 13:01:00,10.9,8.5,30.67,East,97,2.3,2.3,90,0.00,CLR,,0.00,14.0,WeatherDisplay:10.37,2013-12-03 22:01:00,
2013-12-03 13:06:00,10.9,8.5,30.67,East,83,3.0,3.0,90,0.00,CLR,,0.00,14.0,WeatherDisplay:10.37,2013-12-03 22:06:00,
2013-12-03 13:11:00,10.8,8.4,30.67,ENE,73,2.3,2.3,90,0.00,CLR,,0.00,14.0,WeatherDisplay:10.37,2013-12-03 22:11:00,
2013-12-03 13:16:00,10.8,8.4,30.67,ENE,73,0.0,0.1,90,0.00,CLR,,0.00,14.0,WeatherDisplay:10.37,2013-12-03 22:16:00,
2013-12-03 13:21:00,10.8,8.4,30.67,ENE,73,1.2,1.2,90,0.00,CLR,,0.00,12.0,WeatherDisplay:10.37,2013-12-03 22:21:00,
2013-12-03 13:26:00,10.9,8.5,30.67,ENE,73,1.2,1.2,90,0.00,CLR,,0.00,12.0,WeatherDisplay:10.37,2013-12-03 22:26:00,
2013-12-03 13:31:00,11.0,8.9,30.66,ESE,103,1.2,1.2,91,0.00,CLR,,0.00,11.0,WeatherDisplay:10.37,2013-12-03 22:31:00,
2013-12-03 13:36:00,11.1,9.0,30.66,ESE,103,2.3,2.3,91,0.00,CLR,,0.00,11.0,WeatherDisplay:10.37,2013-12-03 22:36:00,
2013-12-03 13:41:00,11.3,9.2,30.66,East,85,1.2,1.2,91,0.00,CLR,,0.00,11.0,WeatherDisplay:10.37,2013-12-03 22:41:00,
2013-12-03 13:46:00,11.4,9.3,30.66,East,85,1.2,0.0,91,0.00,CLR,,0.00,9.0,WeatherDisplay:10.37,2013-12-03 22:46:00,
2013-12-03 13:51:00,11.5,9.4,30.66,East,85,1.2,1.2,91,0.00,CLR,,0.00,9.0,WeatherDisplay:10.37,2013-12-03 22:51:00,
2013-12-03 13:56:00,11.7,9.6,30.66,East,85,1.2,1.2,91,0.00,CLR,,0.00,9.0,WeatherDisplay:10.37,2013-12-03 22:56:00,
2013-12-03 14:01:00,11.8,9.7,30.65,East,85,1.2,0.0,91,0.00,CLR,,0.00,7.0,WeatherDisplay:10.37,2013-12-03 23:01:00,
2013-12-03 14:06:00,11.8,9.7,30.65,East,85,1.2,1.2,91,0.00,CLR,,0.00,7.0,WeatherDisplay:10.37,2013-12-03 23:06:00,
2013-12-03 14:11:00,11.9,9.8,30.64,East,85,1.2,1.2,91,0.00,CLR,,0.00,7.0,WeatherDisplay:10.37,2013-12-03 23:11:00,
2013-12-03 14:16:00,11.9,9.8,30.65,East,85,2.3,2.3,91,0.00,CLR,,0.00,7.0,WeatherDisplay:10.37,2013-12-03 23:16:00,
2013-12-03 14:21:00,11.9,9.8,30.64,East,85,1.2,1.2,91,0.00,CLR,,0.00,7.0,WeatherDisplay:10.37,2013-12-03 23:21:00,
2013-12-03 14:26:00,11.9,9.8,30.64,East,85,2.3,2.3,91,0.00,CLR,,0.00,7.0,WeatherDisplay:10.37,2013-12-03 23:26:00,
2013-12-03 14:31:00,11.8,9.4,30.64,East,85,3.0,3.0,90,0.00,CLR,,0.00,7.0,WeatherDisplay:10.37,2013-12-03 23:31:00,
2013-12-03 14:36:00,11.8,9.7,30.64,East,85,1.2,1.2,91,0.00,CLR,,0.00,7.0,WeatherDisplay:10.37,2013-12-03 23:36:00,
2013-12-03 14:41:00,11.8,9.7,30.64,East,85,1.2,1.2,91,0.00,CLR,,0.00,5.0,WeatherDisplay:10.37,2013-12-03 23:41:00,
2013-12-03 14:46:00,11.9,9.8,30.64,East,85,2.3,2.3,91,0.00,CLR,,0.00,5.0,WeatherDisplay:10.37,2013-12-03 23:46:00,
2013-12-03 14:51:00,11.8,9.4,30.64,East,85,2.3,2.3,90,0.00,CLR,,0.00,5.0,WeatherDisplay:10.37,2013-12-03 23:51:00,
2013-12-03 14:56:00,11.8,9.4,30.64,East,85,2.3,2.3,90,0.00,CLR,,0.00,5.0,WeatherDisplay:10.37,2013-12-03 23:56:00,
2013-12-03 15:01:00,11.8,9.7,30.63,East,85,1.2,1.2,91,0.00,CLR,,0.00,5.0,WeatherDisplay:10.37,2013-12-04 00:01:00,
2013-12-03 15:06:00,11.8,9.7,30.63,East,85,2.3,2.3,91,0.00,CLR,,0.00,0.0,WeatherDisplay:10.37,2013-12-04 00:06:00,
2013-12-03 15:12:00,11.9,9.8,30.63,East,85,2.3,2.3,91,0.00,CLR,,0.00,0.0,WeatherDisplay:10.37,2013-12-04 00:12:00,
2013-12-03 15:17:00,11.8,9.4,30.63,East,85,1.2,1.2,90,0.00,CLR,,0.00,0.0,WeatherDisplay:10.37,2013-12-04 00:17:00,
2013-12-03 15:22:00,11.7,9.3,30.63,NE,53,1.2,1.2,90,0.00,CLR,,0.00,0.0,WeatherDisplay:10.37,2013-12-04 00:22:00,
2013-12-03 15:27:00,11.7,9.3,30.62,East,79,2.3,2.3,90,0.00,CLR,,0.00,0.0,WeatherDisplay:10.37,2013-12-04 00:27:00,
2013-12-03 15:32:00,11.7,9.3,30.63,East,79,1.2,1.2,90,0.00,CLR,,0.00,0.0,WeatherDisplay:10.37,2013-12-04 00:32:00,
2013-12-03 15:37:00,11.6,9.2,30.63,East,79,1.2,1.2,90,0.00,CLR,,0.00,0.0,WeatherDisplay:10.37,2013-12-04 00:37:00,
2013-12-03 15:42:00,11.6,9.2,30.63,East,79,0.0,0.0,90,0.00,CLR,,0.00,0.0,WeatherDisplay:10.37,2013-12-04 00:42:00,
2013-12-03 15:47:00,11.6,9.2,30.62,East,79,2.3,2.3,90,0.00,CLR,,0.00,0.0,WeatherDisplay:10.37,2013-12-04 00:47:00,
2013-12-03 15:52:00,11.7,9.6,30.62,East,92,3.5,3.5,91,0.00,CLR,,0.00,0.0,WeatherDisplay:10.37,2013-12-04 00:52:00,
2013-12-03 15:57:00,11.9,9.8,30.62,East,90,1.2,1.2,91,0.00,CLR,,0.00,0.0,WeatherDisplay:10.37,2013-12-04 00:57:00,
2013-12-03 16:02:00,11.9,9.8,30.62,ENE,78,2.3,2.3,91,0.00,OVC,,0.00,0.0,WeatherDisplay:10.37,2013-12-04 01:02:00,
2013-12-03 16:07:00,11.9,9.8,30.62,ENE,78,2.3,2.3,91,0.00,OVC,,0.00,0.0,WeatherDisplay:10.37,2013-12-04 01:07:00,
2013-12-03 16:12:00,12.0,9.9,30.62,East,89,3.5,3.5,91,0.00,OVC,,0.00,0.0,WeatherDisplay:10.37,2013-12-04 01:12:00,
2013-12-03 16:17:00,12.0,9.9,30.62,East,89,2.3,2.3,91,0.00,OVC,,0.00,0.0,WeatherDisplay:10.37,2013-12-04 01:17:00,
2013-12-03 16:22:00,12.0,9.9,30.62,East,89,2.3,2.3,91,0.00,OVC,,0.00,0.0,WeatherDisplay:10.37,2013-12-04 01:22:00,
2013-12-03 16:27:00,12.1,10.0,30.61,East,88,1.2,1.2,91,0.00,OVC,,0.00,0.0,WeatherDisplay:10.37,2013-12-04 01:27:00,
2013-12-03 16:32:00,12.0,9.9,30.62,East,88,2.0,2.0,91,0.00,OVC,,0.00,0.0,WeatherDisplay:10.37,2013-12-04 01:32:00,
2013-12-03 16:37:00,12.0,9.9,30.62,East,80,2.3,2.3,91,0.00,OVC,,0.00,0.0,WeatherDisplay:10.37,2013-12-04 01:37:00,
2013-12-03 16:42:00,12.0,9.9,30.62,East,80,1.2,1.2,91,0.00,OVC,,0.00,0.0,WeatherDisplay:10.37,2013-12-04 01:42:00,
2013-12-03 16:47:00,12.0,9.9,30.61,East,80,1.2,1.2,91,0.00,OVC,,0.00,0.0,WeatherDisplay:10.37,2013-12-04 01:47:00,
2013-12-03 16:52:00,11.9,9.8,30.61,East,80,2.3,2.3,91,0.00,OVC,,0.00,0.0,WeatherDisplay:10.37,2013-12-04 01:52:00,
2013-12-03 16:57:00,11.9,9.8,30.61,East,80,1.2,1.2,91,0.00,OVC,,0.00,0.0,WeatherDisplay:10.37,2013-12-04 01:57:00,
2013-12-03 17:02:00,11.9,9.8,30.62,East,80,2.3,2.3,91,0.00,CLR,,0.00,0.0,WeatherDisplay:10.37,2013-12-04 02:02:00,
2013-12-03 17:07:00,11.9,9.8,30.61,East,80,2.3,2.3,91,0.00,CLR,,0.00,0.0,WeatherDisplay:10.37,2013-12-04 02:07:00,
2013-12-03 17:12:00,11.8,9.7,30.61,East,80,2.3,2.3,91,0.00,CLR,,0.00,0.0,WeatherDisplay:10.37,2013-12-04 02:12:00,
2013-12-03 17:17:00,11.9,9.8,30.61,East,80,1.2,1.2,91,0.00,CLR,,0.00,0.0,WeatherDisplay:10.37,2013-12-04 02:17:00,
2013-12-03 17:22:00,11.9,9.8,30.61,ESE,104,2.3,2.3,91,0.00,CLR,,0.00,0.0,WeatherDisplay:10.37,2013-12-04 02:22:00,
2013-12-03 17:27:00,11.8,9.7,30.61,East,84,3.5,3.5,91,0.00,CLR,,0.00,0.0,WeatherDisplay:10.37,2013-12-04 02:27:00,
2013-12-03 17:32:00,11.8,9.7,30.61,East,86,1.2,1.2,91,0.00,CLR,,0.00,0.0,WeatherDisplay:10.37,2013-12-04 02:32:00,
2013-12-03 17:37:00,11.8,9.7,30.61,NE,35,2.3,2.3,91,0.00,CLR,,0.00,0.0,WeatherDisplay:10.37,2013-12-04 02:37:00,
2013-12-03 17:42:00,11.9,9.8,30.61,ENE,77,4.6,4.6,91,0.00,CLR,,0.00,0.0,WeatherDisplay:10.37,2013-12-04 02:42:00,
2013-12-03 17:47:00,12.1,10.0,30.61,ENE,71,3.5,3.5,91,0.00,CLR,,0.00,0.0,WeatherDisplay:10.37,2013-12-04 02:47:00,
2013-12-03 17:52:00,12.1,10.0,30.61,ENE,71,2.3,2.3,91,0.00,CLR,,0.00,0.0,WeatherDisplay:10.37,2013-12-04 02:52:00,
2013-12-03 17:57:00,12.0,9.9,30.61,ENE,71,0.0,0.0,91,0.00,CLR,,0.00,0.0,WeatherDisplay:10.37,2013-12-04 02:57:00,
2013-12-03 18:02:00,12.0,9.9,30.60,East,82,2.3,2.3,91,0.00,CLR,,0.00,0.0,WeatherDisplay:10.37,2013-12-04 03:02:00,
2013-12-03 18:07:00,12.0,9.9,30.61,East,84,1.2,1.2,91,0.00,CLR,,0.00,0.0,WeatherDisplay:10.37,2013-12-04 03:07:00,
2013-12-03 18:12:00,12.1,10.0,30.61,NE,49,2.3,2.3,91,0.00,CLR,,0.00,0.0,WeatherDisplay:10.37,2013-12-04 03:12:00,
2013-12-03 18:17:00,12.3,10.4,30.61,ENE,69,1.2,1.2,92,0.00,CLR,,0.00,0.0,WeatherDisplay:10.37,2013-12-04 03:17:00,
2013-12-03 18:22:00,12.7,10.8,30.61,ENE,74,3.0,3.0,92,0.00,CLR,,0.00,0.0,WeatherDisplay:10.37,2013-12-04 03:22:00,
2013-12-03 18:27:00,12.9,11.0,30.60,East,92,1.2,1.2,92,0.00,CLR,,0.00,0.0,WeatherDisplay:10.37,2013-12-04 03:27:00,
2013-12-03 18:32:00,13.0,11.1,30.60,ENE,78,2.3,2.3,92,0.00,CLR,,0.00,0.0,WeatherDisplay:10.37,2013-12-04 03:32:00,
2013-12-03 18:37:00,13.1,11.2,30.60,ENE,76,3.5,3.5,92,0.00,CLR,,0.00,0.0,WeatherDisplay:10.37,2013-12-04 03:37:00,
2013-12-03 18:42:00,13.2,11.1,30.61,NE,40,3.5,3.5,91,0.00,CLR,,0.00,0.0,WeatherDisplay:10.37,2013-12-04 03:42:00,
2013-12-03 18:47:00,13.3,11.2,30.60,ENE,73,2.3,2.3,91,0.00,CLR,,0.00,0.0,WeatherDisplay:10.37,2013-12-04 03:47:00,
2013-12-03 18:52:00,13.2,11.1,30.60,ESE,105,3.5,3.5,91,0.00,CLR,,0.00,0.0,WeatherDisplay:10.37,2013-12-04 03:52:00,
2013-12-03 18:57:00,13.3,11.2,30.60,ESE,105,3.5,3.5,91,0.00,CLR,,0.00,0.0,WeatherDisplay:10.37,2013-12-04 03:57:00,
2013-12-03 19:02:00,13.4,11.3,30.61,East,90,1.2,1.2,91,0.00,CLR,,0.00,0.0,WeatherDisplay:10.37,2013-12-04 04:02:00,
2013-12-03 19:07:00,13.5,11.6,30.61,East,90,2.3,2.3,92,0.00,CLR,,0.00,0.0,WeatherDisplay:10.37,2013-12-04 04:07:00,
2013-12-03 19:12:00,13.6,11.7,30.61,East,90,1.2,1.2,92,0.00,CLR,,0.00,0.0,WeatherDisplay:10.37,2013-12-04 04:12:00,
2013-12-03 19:17:00,13.7,11.8,30.60,East,80,3.5,3.5,92,0.00,CLR,,0.00,0.0,WeatherDisplay:10.37,2013-12-04 04:17:00,
2013-12-03 19:22:00,13.9,12.0,30.60,East,92,2.3,2.3,92,0.00,CLR,,0.00,0.0,WeatherDisplay:10.37,2013-12-04 04:22:00,
2013-12-03 19:27:00,14.0,12.1,30.60,East,88,3.5,3.5,92,0.00,CLR,,0.00,0.0,WeatherDisplay:10.37,2013-12-04 04:27:00,
2013-12-03 19:32:00,14.2,12.3,30.60,East,101,4.6,4.6,92,0.00,CLR,,0.00,0.0,WeatherDisplay:10.37,2013-12-04 04:32:00,
2013-12-03 19:37:00,14.4,12.5,30.60,ENE,69,3.5,3.5,92,0.00,CLR,,0.00,0.0,WeatherDisplay:10.37,2013-12-04 04:37:00,
2013-12-03 19:42:00,14.6,12.7,30.60,ENE,71,1.2,1.2,92,0.00,CLR,,0.00,0.0,WeatherDisplay:10.37,2013-12-04 04:42:00,
2013-12-03 19:47:00,14.8,12.9,30.59,East,84,4.6,4.6,92,0.00,CLR,,0.00,0.0,WeatherDisplay:10.37,2013-12-04 04:47:00,
2013-12-03 19:52:00,15.0,13.1,30.59,East,88,1.2,0.0,92,0.00,CLR,,0.00,0.0,WeatherDisplay:10.37,2013-12-04 04:52:00,
2013-12-03 19:57:00,15.2,13.3,30.59,NE,52,3.5,3.5,92,0.00,CLR,,0.00,0.0,WeatherDisplay:10.37,2013-12-04 04:57:00,
2013-12-03 20:01:00,15.3,13.4,30.59,East,99,3.5,3.5,92,0.00,OVC,,0.00,0.0,WeatherDisplay:10.37,2013-12-04 05:01:00,
2013-12-03 20:06:00,15.5,13.6,30.58,ENE,74,4.6,4.6,92,0.00,OVC,,0.00,0.0,WeatherDisplay:10.37,2013-12-04 05:06:00,
2013-12-03 20:11:00,15.6,13.7,30.58,East,89,3.5,3.5,92,0.00,OVC,,0.00,0.0,WeatherDisplay:10.37,2013-12-04 05:11:00,
2013-12-03 20:16:00,15.8,13.9,30.58,NNE,26,4.6,4.6,92,0.00,OVC,,0.00,0.0,WeatherDisplay:10.37,2013-12-04 05:16:00,
2013-12-03 20:21:00,15.9,14.0,30.58,East,94,3.0,3.0,92,0.00,OVC,,0.00,0.0,WeatherDisplay:10.37,2013-12-04 05:21:00,
2013-12-03 20:26:00,15.9,14.0,30.58,East,100,3.5,3.5,92,0.00,OVC,,0.00,0.0,WeatherDisplay:10.37,2013-12-04 05:26:00,
2013-12-03 20:31:00,16.0,13.8,30.58,East,82,2.3,2.3,91,0.00,OVC,,0.00,0.0,WeatherDisplay:10.37,2013-12-04 05:31:00,
2013-12-03 20:36:00,16.1,13.9,30.57,ENE,68,3.0,3.0,91,0.00,OVC,,0.00,0.0,WeatherDisplay:10.37,2013-12-04 05:36:00,
2013-12-03 20:41:00,16.1,14.2,30.57,ENE,77,3.5,3.5,92,0.00,OVC,,0.00,0.0,WeatherDisplay:10.37,2013-12-04 05:41:00,
2013-12-03 20:46:00,16.1,13.9,30.57,ENE,76,5.0,5.0,91,0.00,OVC,,0.00,0.0,WeatherDisplay:10.37,2013-12-04 05:46:00,
2013-12-03 20:51:00,16.1,13.9,30.57,ENE,76,3.5,3.5,91,0.00,OVC,,0.00,0.0,WeatherDisplay:10.37,2013-12-04 05:51:00,
2013-12-03 20:56:00,16.1,13.9,30.58,East,80,4.6,4.6,91,0.00,OVC,,0.00,0.0,WeatherDisplay:10.37,2013-12-04 05:56:00,
2013-12-03 21:01:00,16.1,13.9,30.58,NNE,25,3.5,3.5,91,0.00,OVC,,0.00,0.0,WeatherDisplay:10.37,2013-12-04 06:01:00,
2013-12-03 21:06:00,16.2,14.0,30.58,ENE,78,2.3,2.3,91,0.00,OVC,,0.00,0.0,WeatherDisplay:10.37,2013-12-04 06:06:00,
2013-12-03 21:11:00,16.3,14.4,30.58,ENE,78,0.0,0.0,92,0.00,OVC,,0.00,0.0,WeatherDisplay:10.37,2013-12-04 06:11:00,
2013-12-03 21:16:00,16.3,14.4,30.58,ENE,66,3.0,3.0,92,0.00,OVC,,0.00,0.0,WeatherDisplay:10.37,2013-12-04 06:16:00,
2013-12-03 21:21:00,16.4,14.5,30.58,ENE,62,1.2,0.0,92,0.00,OVC,,0.00,0.0,WeatherDisplay:10.37,2013-12-04 06:21:00,
2013-12-03 21:26:00,16.6,14.7,30.58,ENE,57,3.5,3.5,92,0.00,OVC,,0.00,0.0,WeatherDisplay:10.37,2013-12-04 06:26:00,
2013-12-03 21:31:00,16.8,14.9,30.58,East,92,2.3,2.3,92,0.00,OVC,,0.00,0.0,WeatherDisplay:10.37,2013-12-04 06:31:00,
2013-12-03 21:36:00,16.9,15.0,30.58,East,92,1.2,1.2,92,0.00,OVC,,0.00,0.0,WeatherDisplay:10.37,2013-12-04 06:36:00,
2013-12-03 21:41:00,17.1,15.2,30.58,East,92,3.5,3.5,92,0.00,OVC,,0.00,0.0,WeatherDisplay:10.37,2013-12-04 06:41:00,
2013-12-03 21:46:00,17.3,15.4,30.58,NE,40,3.0,3.0,92,0.00,OVC,,0.00,0.0,WeatherDisplay:10.37,2013-12-04 06:46:00,
2013-12-03 21:51:00,17.4,15.5,30.58,East,80,2.3,2.3,92,0.00,OVC,,0.00,0.0,WeatherDisplay:10.37,2013-12-04 06:51:00,
2013-12-03 21:56:00,17.6,15.7,30.58,East,79,2.3,2.3,92,0.00,OVC,,0.00,0.0,WeatherDisplay:10.37,2013-12-04 06:56:00,
2013-12-03 22:01:00,17.7,15.8,30.57,NE,54,3.5,3.5,92,0.00,OVC,,0.00,0.0,WeatherDisplay:10.37,2013-12-04 07:01:00,
2013-12-03 22:06:00,17.8,15.9,30.57,ENE,58,3.5,3.5,92,0.00,OVC,,0.00,0.0,WeatherDisplay:10.37,2013-12-04 07:06:00,
2013-12-03 22:11:00,17.9,16.0,30.58,NE,51,3.5,3.5,92,0.00,OVC,,0.00,0.0,WeatherDisplay:10.37,2013-12-04 07:11:00,
2013-12-03 22:16:00,18.0,16.1,30.58,ENE,74,3.5,3.5,92,0.00,OVC,,0.00,0.0,WeatherDisplay:10.37,2013-12-04 07:16:00,
2013-12-03 22:21:00,18.1,16.2,30.57,ENE,78,2.3,2.3,92,0.00,OVC,,0.00,0.0,WeatherDisplay:10.37,2013-12-04 07:21:00,
2013-12-03 22:26:00,18.2,16.0,30.58,East,96,1.2,1.2,91,0.00,OVC,,0.00,0.0,WeatherDisplay:10.37,2013-12-04 07:26:00,
2013-12-03 22:31:00,18.3,16.4,30.58,NNE,30,3.5,3.5,92,0.00,OVC,,0.00,0.0,WeatherDisplay:10.37,2013-12-04 07:31:00,
2013-12-03 22:36:00,18.4,16.5,30.58,NE,44,3.5,3.5,92,0.00,OVC,,0.00,0.0,WeatherDisplay:10.37,2013-12-04 07:36:00,
2013-12-03 22:41:00,18.5,18.5,30.57,East,90,4.6,4.6,100,0.00,OVC,,0.00,0.0,WeatherDisplay:10.37,2013-12-04 07:41:00,
2013-12-03 22:46:00,18.7,16.5,30.58,ENE,69,2.3,2.3,91,0.00,OVC,,0.00,0.0,WeatherDisplay:10.37,2013-12-04 07:46:00,
2013-12-03 22:51:00,18.8,16.6,30.57,ENE,78,3.5,3.5,91,0.00,OVC,,0.00,0.0,WeatherDisplay:10.37,2013-12-04 07:51:00,
2013-12-03 22:56:00,18.8,16.6,30.57,East,90,3.5,3.5,91,0.00,OVC,,0.00,0.0,WeatherDisplay:10.37,2013-12-04 07:56:00,
2013-12-03 23:01:00,18.9,16.7,30.57,ENE,68,3.5,3.5,91,0.00,OVC,,0.00,0.0,WeatherDisplay:10.37,2013-12-04 08:01:00,
2013-12-03 23:06:00,18.9,16.7,30.57,ENE,71,2.3,2.3,91,0.00,OVC,,0.00,0.0,WeatherDisplay:10.37,2013-12-04 08:06:00,
2013-12-03 23:11:00,19.0,16.8,30.57,ENE,72,1.2,1.2,91,0.00,OVC,,0.00,0.0,WeatherDisplay:10.37,2013-12-04 08:11:00,
2013-12-03 23:16:00,19.0,16.6,30.57,East,87,3.5,3.5,90,0.00,OVC,,0.00,0.0,WeatherDisplay:10.37,2013-12-04 08:16:00,
2013-12-03 23:21:00,19.1,16.7,30.56,East,88,6.0,6.0,90,0.00,OVC,,0.00,0.0,WeatherDisplay:10.37,2013-12-04 08:21:00,
2013-12-03 23:28:00,19.2,16.7,30.56,NE,52,3.5,3.5,90,0.00,OVC,,0.00,0.0,WeatherDisplay:10.37,2013-12-04 08:28:00,
2013-12-03 23:33:00,19.3,16.8,30.56,ENE,73,3.5,3.5,90,0.00,OVC,,0.00,0.0,WeatherDisplay:10.37,2013-12-04 08:33:00,
2013-12-03 23:38:00,19.4,16.9,30.56,ENE,78,4.6,4.6,90,0.00,OVC,,0.00,0.0,WeatherDisplay:10.37,2013-12-04 08:38:00,
2013-12-03 23:43:00,19.5,17.0,30.56,East,81,3.5,3.5,90,0.00,OVC,,0.00,0.0,WeatherDisplay:10.37,2013-12-04 08:43:00,
2013-12-03 23:48:00,19.6,17.1,30.56,East,100,3.5,3.5,90,0.00,OVC,,0.00,0.0,WeatherDisplay:10.37,2013-12-04 08:48:00,
2013-12-03 23:53:00,19.7,17.2,30.57,ENE,69,3.5,3.5,90,0.00,OVC,,0.00,0.0,WeatherDisplay:10.37,2013-12-04 08:53:00,
2013-12-03 23:58:00,19.8,17.3,30.56,East,81,6.9,6.9,90,0.00,OVC,,0.00,0.0,WeatherDisplay:10.37,2013-12-04 08:58:00,